Regional Weather Roundup
Issued by NWS

Home | Current Version | Previous Version | Text Only | Print | Product List | Glossary On
Versions: 1 2 3 4 5 6 7 8 9 10 11 12 13 14 15 16 17 18 19 20 21 22 23 24 25 26 27 28
000
ASUS45 KCYS 180510
RWRWY

WYOMING REGIONAL WEATHER ROUNDUP
NATIONAL WEATHER SERVICE CHEYENNE WY
1000 PM MST TUE JAN 17 2017

NOTE:  "FAIR" INDICATES FEW OR NO CLOUDS BELOW 12,000 FEET
WITH NO SIGNIFICANT WEATHER AND/OR OBSTRUCTIONS TO VISIBILITY.

WYZ001-180600-
YELLOWSTONE NATIONAL PARK

CITY           SKY/WX    TMP DP  RH WIND       PRES   REMARKS
LK YELLOWSTONE   N/A     -1  -4  87 CALM      30.14S
W YELLOWSTONE  NOT AVBL

$$
WYZ002>013-054>058-071-098>099-180600-
NORTHERN WYOMING

CITY           SKY/WX    TMP DP  RH WIND       PRES   REMARKS
JACKSON        FAIR      -6  -8  92 NE7       30.18R WCI -20
CODY           FAIR      12   6  77 NE5       29.92  WCI   4
GREYBULL       FAIR      -3  -8  79 CALM      29.97F
WORLAND        FAIR       9   5  84 SW7       29.94F WCI  -2
SHERIDAN       FAIR      19  12  74 S3        29.87S
BUFFALO        FAIR      36  19  50 CALM      29.89F
GILLETTE       FAIR      36  19  50 SW22      29.88F WCI  25
HULETT         FAIR      32  19  59 SW8       29.89F WCI  25
NEWCASTLE      FAIR      27  14  59 CALM      29.93F

$$
WYZ014>020-022>026-101>103-180600-
CENTRAL WYOMING

CITY           SKY/WX    TMP DP  RH WIND       PRES   REMARKS
BIG PINEY      FAIR     -12 -16  82 NE5       30.15F WCI -24
PINEDALE       FAIR      -9 -15  77 NW6       30.15F WCI -23
DUBOIS         NOT AVBL
LANDER         FAIR      12   6  77 CALM      30.04F
RIVERTON       FAIR       4  -1  80 NW5       30.06F WCI  -5
CASPER         FAIR      31  10  41 SW23G29   29.99F WCI  18
DOUGLAS        FAIR      26  13  57 NW5       29.97F WCI  20

$$
WYZ021-027>030-104>119-180600-
SOUTHERN WYOMING

CITY           SKY/WX    TMP DP  RH WIND       PRES   REMARKS
EVANSTON       FAIR      15   5  64 S9        30.12F WCI   3
ROCK SPRINGS   FAIR       1  -4  79 CALM      30.13F
RAWLINS        FAIR      11   6  81 CALM      30.12F
LARAMIE        FAIR       6   2  83 CALM      30.06F
CHEYENNE       FAIR      30  12  47 W10       29.99F WCI  21
TORRINGTON     FAIR      31  12  45 W3        29.96S

$$




USA.gov is the U.S. government's official web portal to all federal, state and local government web resources and services.